Regional Weather Roundup
Issued by NWS Green Bay, WI

Home | Current Version | Previous Version | Text Only | Print | Product List | Glossary On
Versions: 1 2 3 4 5 6 7 8 9 10 11 12 13 14 15 16 17 18 19 20 21 22 23 24 25 26 27 28 29 30 31 32 33 34 35 36 37 38 39 40 41 42 43 44 45 46 47 48 49 50
000
ASUS43 KGRB 071100
RWRGRB

NORTH-CENTRAL AND NORTHEAST WISCONSIN REGIONAL WEATHER ROUNDUP
NATIONAL WEATHER SERVICE GREEN BAY WI
600 AM CDT TUE JUL 07 2015

WIZ005-009-010>012-018-019-071200-
NORTH CENTRAL WISCONSIN

CITY           SKY/WX    TMP DP  RH WIND       PRES   REMARKS
IRONWOOD       CLOUDY    52  48  87 N6        30.04R
MANITOWISH WTR NOT AVBL
ARBOR VITAE    NOT AVBL
EAGLE RIVER    NOT AVBL
LAND O LAKES   NOT AVBL
RHINELANDER    CLEAR     49  45  86 N5        30.03R
PHILLIPS       NOT AVBL
ANTIGO         NOT AVBL
TOMAHAWK       NOT AVBL
MERRILL        NOT AVBL
$$

WIZ013-073-071200-
NORTHEAST WISCONSIN

CITY           SKY/WX    TMP DP  RH WIND       PRES   REMARKS
IRON MOUNTAIN  PTCLDY    52  48  86 NW9       29.97R
MARINETTE      CLEAR     52  46  82 N7        29.96S
$$

WIZ017-030-035>037-045-071200-
CENTRAL WISCONSIN

CITY           SKY/WX    TMP DP  RH WIND       PRES   REMARKS
MEDFORD        NOT AVBL
WAUSAU         CLEAR     53  48  83 VRB5      30.01R
MOSINEE        CLEAR     52  50  93 NW9       30.02R
MARSHFIELD     CLEAR     52  46  80 N9        30.03R
WISC RAPIDS    CLEAR     54  49  83 N10       30.02R
STEVENS POINT  NOT AVBL
WAUPACA        NOT AVBL
SHAWANO        NOT AVBL
CLINTONVILLE   NOT AVBL
$$

WIZ038-039-048-051-071200-
FOX VALLEY

CITY           SKY/WX    TMP DP  RH WIND       PRES   REMARKS
NWS GREEN BAY  CLOUDY    58  48  69 N13       29.97R
APPLETON       CLOUDY    57  52  82 N13       29.97R HAZE
OSHKOSH        PTCLDY    60  54  80 N13       29.96R HAZE
FOND DU LAC    CLOUDY    61  57  87 NW10      29.95R FOG
$$

WIZ022-050-052-071200-
EAST CENTRAL WISCONSIN

CITY           SKY/WX    TMP DP  RH WIND       PRES   REMARKS
STURGEON BAY   CLOUDY    55  46  71 N15G22    29.98R
MANITOWOC      NOT AVBL
SHEBOYGAN      CLOUDY    58  53  84 N8        29.95R
$$

LMZ563-521-522-541>543-071200-
LAKESHORE

STATION/POSITION TIME  TEMP    WIND        PRES    VSBY  WAVE
                       AIR SEA DIR/SP/G                  HT/PER
                 (UTC) (F)     (DEG/KT/KT) (MB)    (MI)  (FT/S)
SHEBOYGAN LKSHOR 1000   57      20/ 15/ 17 1013.4R
KEWAUNEE LKSHORE 1000   58     360/  8/ 12 1013.0R
ALGOMA MARINA    1011           10/  6/  8   N/A
NORTHPORT PIER   1000   58     350/ 20/ 23 1013.5R
N MID LAKE BUOY  0950   53 53  320/ 16/ 19 1012.6R         3/ 4
CHAMBERS ISLAND  1000   57     330/ 15/ 20 1014.2R
MENOMINEE LKSHOR 1000   56     340/ 12/ 15 1015.0R
$$



USA.gov is the U.S. government's official web portal to all federal, state and local government web resources and services.